QPF
0.02 0.02 0.03 0.05 0.03 0.01 0.01 0.01 0.02 0.04 0.01 0.00 0.00 0.00 0.00 0.00 0.00 0.00 0.00 0.00 0.00 0.00 0.00 0.00 0.00 0.00 0.00 0.00 0.00 0.00 0.00 0.00 0.00 0.00 0.00 0.00 0.00 0.00 0.00 0.00 0.00 0.00 0.00 0.00 0.00
0.00 0.00 0.00 0.02 0.04 0.02 0.01 0.01 0.02 0.05 0.02 0.00 0.00 0.00 0.00 0.00 0.00 0.00 0.00 0.00 0.00 0.00 0.00 0.00 0.00 0.00 0.00 0.00 0.00 0.00 0.00 0.00 0.00 0.00 0.00 0.00 0.00 0.00 0.00 0.00 0.00 0.00 0.00 0.00 0.00
0.02 0.00 0.00 0.01 0.03 0.03 0.01 0.01 0.04 0.07 0.03 0.00 0.00 0.00 0.00 0.00 0.00 0.00 0.00 0.00 0.00 0.00 0.00 0.00 0.00 0.00 0.00 0.00 0.00 0.00 0.00 0.00 0.00 0.00 0.00 0.00 0.00 0.00 0.00 0.00 0.00 0.00 0.00 0.00 0.00
0.02 0.01 0.01 0.00 0.02 0.03 0.02 0.01 0.05 0.08 0.03 0.00 0.00 0.00 0.00 0.00 0.00 0.00 0.00 0.00 0.00 0.00 0.00 0.00 0.00 0.00 0.00 0.00 0.00 0.00 0.00 0.00 0.00 0.00 0.00 0.00 0.00 0.00 0.00 0.00 0.00 0.00 0.00 0.00 0.00
0.06 0.01 0.01 0.01 0.02 0.03 0.03 0.03 0.05 0.05 0.03 0.00 0.00 0.00 0.00 0.00 0.00 0.00 0.00 0.00 0.00 0.00 0.00 0.00 0.00 0.00 0.00 0.00 0.00 0.00 0.00 0.00 0.00 0.00 0.00 0.00 0.00 0.00 0.00 0.00 0.00 0.00 0.00 0.00 0.00
0.03 0.02 0.02 0.01 0.02 0.02 0.03 0.03 0.04 0.04 0.01 0.00 0.00 0.00 0.00 0.00 0.00 0.00 0.00 0.00 0.00 0.00 0.00 0.00 0.00 0.00 0.00 0.00 0.00 0.00 0.00 0.00 0.00 0.00 0.00 0.00 0.00 0.00 0.00 0.00 0.00 0.00 0.00 0.00 0.00
0.00 0.01 0.01 0.01 0.03 0.03 0.04 0.04 0.04 0.03 0.01 0.00 0.00 0.00 0.00 0.00 0.00 0.00 0.00 0.00 0.00 0.00 0.00 0.00 0.00 0.00 0.00 0.00 0.00 0.00 0.00 0.00 0.00 0.00 0.00 0.00 0.00 0.00 0.00 0.00 0.00 0.00 0.00 0.00 0.00
0.00 0.00 0.01 0.00 0.02 0.05 0.06 0.06 0.03 0.03 0.01 0.00 0.00 0.00 0.00 0.00 0.00 0.00 0.00 0.00 0.00 0.00 0.00 0.00 0.00 0.00 0.00 0.00 0.00 0.00 0.00 0.00 0.00 0.00 0.00 0.00 0.00 0.00 0.00 0.00 0.00 0.00 0.00 0.00 0.00
0.00 0.00 0.01 0.00 0.02 0.05 0.08 0.08 0.03 0.03 0.03 0.02 0.00 0.00 0.00 0.00 0.00 0.00 0.00 0.00 0.00 0.00 0.00 0.00 0.00 0.00 0.00 0.00 0.00 0.00 0.00 0.00 0.00 0.00 0.00 0.00 0.00 0.00 0.00 0.00 0.00 0.00 0.00 0.00 0.00
0.00 0.00 0.01 0.00 0.02 0.05 0.09 0.09 0.04 0.04 0.04 0.01 0.00 0.00 0.00 0.00 0.00 0.00 0.00 0.00 0.00 0.00 0.00 0.00 0.00 0.00 0.00 0.00 0.00 0.00 0.00 0.00 0.00 0.00 0.00 0.00 0.00 0.00 0.00 0.00 0.00 0.00 0.00 0.00 0.00
0.00 0.00 0.01 0.01 0.02 0.05 0.11 0.10 0.08 0.04 0.01 0.00 0.00 0.00 0.00 0.00 0.00 0.01 0.00 0.00 0.00 0.00 0.00 0.00 0.00 0.00 0.00 0.00 0.00 0.00 0.00 0.00 0.00 0.00 0.00 0.00 0.00 0.00 0.00 0.00 0.00 0.00 0.00 0.00 0.00
0.00 0.00 0.01 0.02 0.03 0.08 0.09 0.06 0.03 0.00 0.00 0.00 0.00 0.00 0.00 0.00 0.01 0.02 0.00 0.00 0.00 0.00 0.00 0.00 0.00 0.00 0.00 0.00 0.00 0.00 0.00 0.00 0.00 0.00 0.00 0.00 0.00 0.00 0.00 0.00 0.00 0.00 0.00 0.00 0.00
0.00 0.00 0.01 0.03 0.05 0.09 0.07 0.06 0.02 0.00 0.00 0.00 0.00 0.00 0.00 0.00 0.00 0.01 0.00 0.00 0.00 0.00 0.00 0.00 0.00 0.00 0.00 0.00 0.00 0.00 0.00 0.00 0.00 0.00 0.00 0.00 0.00 0.00 0.00 0.00 0.00 0.00 0.00 0.00 0.00
0.00 0.00 0.01 0.05 0.07 0.06 0.07 0.06 0.02 0.00 0.00 0.00 0.00 0.00 0.00 0.00 0.00 0.00 0.00 0.00 0.00 0.00 0.00 0.00 0.00 0.00 0.00 0.00 0.00 0.00 0.00 0.00 0.00 0.00 0.00 0.00 0.00 0.00 0.00 0.00 0.00 0.00 0.00 0.00 0.00
0.00 0.00 0.00 0.05 0.06 0.05 0.05 0.03 0.01 0.01 0.00 0.00 0.00 0.00 0.00 0.00 0.00 0.00 0.00 0.00 0.00 0.00 0.00 0.00 0.00 0.00 0.00 0.00 0.00 0.00 0.00 0.00 0.00 0.00 0.00 0.00 0.00 0.00 0.00 0.00 0.00 0.00 0.00 0.00 0.00
0.00 0.00 0.00 0.03 0.06 0.05 0.05 0.03 0.02 0.01 0.00 0.00 0.00 0.00 0.00 0.00 0.00 0.00 0.00 0.00 0.00 0.00 0.00 0.00 0.00 0.00 0.00 0.00 0.00 0.00 0.00 0.00 0.00 0.00 0.00 0.00 0.00 0.00 0.00 0.00 0.00 0.00 0.00 0.00 0.00
0.00 0.00 0.00 0.02 0.04 0.03 0.03 0.02 0.01 0.00 0.00 0.00 0.00 0.00 0.00 0.00 0.00 0.00 0.00 0.00 0.00 0.00 0.00 0.00 0.00 0.00 0.00 0.00 0.00 0.00 0.00 0.00 0.00 0.00 0.00 0.00 0.00 0.00 0.00 0.00 0.00 0.00 0.00 0.00 0.00
0.00 0.00 0.00 0.01 0.03 0.02 0.01 0.01 0.00 0.00 0.00 0.00 0.00 0.00 0.00 0.00 0.00 0.00 0.00 0.00 0.00 0.00 0.00 0.00 0.00 0.00 0.00 0.00 0.00 0.00 0.00 0.00 0.00 0.00 0.00 0.00 0.00 0.00 0.00 0.00 0.00 0.00 0.00 0.00 0.00
0.00 0.00 0.00 0.01 0.01 0.02 0.00 0.00 0.00 0.00 0.00 0.00 0.00 0.00 0.00 0.00 0.00 0.00 0.00 0.00 0.00 0.00 0.00 0.00 0.00 0.00 0.00 0.00 0.00 0.00 0.00 0.00 0.00 0.00 0.00 0.00 0.00 0.00 0.00 0.00 0.00 0.00 0.00 0.00 0.00
0.00 0.00 0.00 0.03 0.02 0.00 0.00 0.00 0.00 0.00 0.00 0.00 0.00 0.00 0.00 0.00 0.00 0.00 0.00 0.00 0.00 0.00 0.00 0.00 0.00 0.00 0.00 0.00 0.00 0.00 0.00 0.00 0.00 0.00 0.00 0.00 0.00 0.00 0.00 0.00 0.00 0.00 0.00 0.00 0.00
0.00 0.00 0.00 0.04 0.02 0.00 0.00 0.00 0.00 0.00 0.00 0.00 0.00 0.00 0.00 0.00 0.00 0.00 0.00 0.00 0.00 0.00 0.00 0.00 0.00 0.00 0.00 0.00 0.00 0.00 0.00 0.00 0.00 0.00 0.00 0.00 0.00 0.00 0.00 0.00 0.00 0.00 0.00 0.00 0.00
0.00 0.00 0.00 0.01 0.01 0.00 0.00 0.00 0.00 0.00 0.00 0.00 0.00 0.00 0.00 0.00 0.00 0.00 0.00 0.00 0.00 0.00 0.00 0.00 0.00 0.00 0.00 0.00 0.00 0.00 0.00 0.00 0.00 0.00 0.00 0.00 0.00 0.00 0.00 0.00 0.00 0.00 0.00 0.00 0.00
0.00 0.00 0.00 0.00 0.00 0.00 0.00 0.00 0.00 0.00 0.00 0.00 0.00 0.00 0.00 0.00 0.00 0.00 0.00 0.00 0.00 0.00 0.00 0.00 0.00 0.00 0.00 0.00 0.00 0.00 0.00 0.00 0.00 0.00 0.00 0.00 0.00 0.00 0.00 0.00 0.00 0.00 0.00 0.00 0.00
0.00 0.00 0.00 0.00 0.00 0.00 0.00 0.00 0.00 0.00 0.00 0.00 0.00 0.00 0.00 0.00 0.00 0.00 0.00 0.00 0.00 0.00 0.00 0.00 0.00 0.00 0.00 0.00 0.00 0.00 0.00 0.00 0.00 0.00 0.00 0.00 0.00 0.00 0.00 0.00 0.00 0.00 0.00 0.00 0.00
0.00 0.00 0.00 0.00 0.00 0.00 0.00 0.00 0.00 0.00 0.00 0.00 0.00 0.00 0.00 0.00 0.00 0.00 0.00 0.00 0.00 0.00 0.00 0.00 0.00 0.00 0.00 0.00 0.00 0.00 0.00 0.00 0.00 0.00 0.00 0.00 0.00 0.00 0.00 0.00 0.00 0.00 0.00 0.00 0.00
0.00 0.00 0.00 0.00 0.00 0.00 0.00 0.00 0.00 0.00 0.00 0.00 0.00 0.00 0.00 0.00 0.00 0.00 0.00 0.00 0.00 0.00 0.00 0.00 0.00 0.00 0.00 0.00 0.00 0.00 0.00 0.00 0.00 0.00 0.00 0.00 0.00 0.00 0.00 0.00 0.00 0.00 0.00 0.00 0.00
0.00 0.00 0.00 0.00 0.00 0.00 0.00 0.00 0.00 0.00 0.00 0.00 0.00 0.00 0.00 0.00 0.00 0.00 0.00 0.00 0.00 0.00 0.00 0.00 0.00 0.00 0.00 0.00 0.00 0.00 0.00 0.00 0.00 0.00 0.00 0.00 0.00 0.00 0.00 0.00 0.00 0.00 0.00 0.00 0.00
MSLP
1008.82 1009.18 1009.06 1009.16 1009.82 1010.21 1010.68 1011.10 1011.37 1012.24 1012.73 1013.30 1013.84 1014.48 1015.19 1015.51 1015.63 1015.95 1015.93 1015.29 1015.35 1015.23 1015.07 1015.52 1015.56 1015.60 1015.33 1015.48 1015.70 1016.10 1016.98 1017.34 1017.04 1016.88 1016.14 1015.99 1016.21 1016.54 1016.74 1017.46 1017.83 1018.15 1018.55 1018.34 1019.67
1008.09 1008.66 1008.91 1008.98 1009.55 1009.69 1010.13 1010.58 1011.05 1011.70 1012.40 1013.08 1013.63 1014.42 1014.89 1015.36 1015.68 1015.62 1014.94 1014.91 1014.93 1015.11 1015.28 1015.87 1015.60 1015.80 1015.46 1015.80 1015.92 1016.25 1016.83 1016.50 1015.91 1015.70 1015.68 1015.71 1015.92 1016.44 1017.04 1017.64 1018.16 1018.34 1018.74 1018.86 1019.71
1007.79 1008.17 1008.57 1008.94 1008.96 1009.26 1009.50 1009.96 1010.49 1011.23 1012.00 1012.71 1013.43 1014.28 1014.91 1015.21 1015.82 1014.74 1014.51 1014.74 1014.90 1015.10 1015.57 1015.68 1015.40 1015.64 1015.41 1016.42 1016.28 1016.35 1016.41 1015.79 1015.30 1015.07 1015.32 1015.54 1016.03 1016.24 1016.87 1017.67 1017.56 1017.93 1018.90 1019.27 1019.84
1007.50 1007.78 1008.04 1008.24 1008.62 1008.86 1008.95 1009.49 1010.18 1010.75 1011.62 1012.46 1013.26 1014.30 1015.14 1015.34 1015.41 1013.72 1013.78 1014.55 1014.68 1014.78 1015.11 1015.24 1015.63 1015.81 1016.31 1016.99 1016.79 1016.65 1015.96 1015.68 1015.03 1015.02 1015.33 1015.67 1015.78 1016.29 1016.58 1016.45 1016.37 1017.25 1017.69 1018.92 1019.60
1007.00 1007.36 1007.32 1007.92 1008.41 1008.44 1008.45 1008.99 1009.83 1010.30 1011.50 1012.04 1013.16 1014.12 1015.06 1015.26 1014.34 1013.82 1013.89 1014.43 1014.50 1014.98 1015.38 1015.75 1016.08 1016.14 1016.62 1017.20 1017.20 1016.92 1016.43 1015.80 1015.23 1015.09 1015.25 1015.43 1015.84 1016.23 1016.50 1016.56 1016.82 1017.57 1018.47 1018.82 1019.44
1006.86 1006.58 1007.42 1007.49 1007.62 1007.51 1007.88 1008.61 1009.29 1010.09 1010.88 1011.92 1012.92 1014.36 1014.66 1014.64 1013.86 1013.77 1014.31 1014.61 1014.79 1015.25 1015.65 1015.96 1016.35 1016.34 1017.06 1017.59 1017.93 1017.67 1017.20 1016.42 1015.58 1015.29 1015.32 1015.50 1016.13 1016.43 1016.82 1017.06 1017.65 1018.05 1018.64 1018.91 1019.14
1006.97 1007.06 1006.60 1006.92 1007.20 1006.93 1007.29 1007.98 1008.79 1009.40 1010.77 1011.80 1012.71 1013.75 1014.14 1013.85 1013.78 1013.98 1014.43 1015.09 1015.19 1015.36 1016.25 1016.73 1016.86 1016.59 1017.58 1018.06 1018.57 1018.03 1018.15 1016.93 1016.09 1015.76 1015.58 1015.62 1016.64 1016.61 1016.83 1017.36 1018.02 1018.70 1018.88 1019.12 1019.18
1006.48 1006.45 1006.33 1006.83 1006.56 1006.67 1006.90 1007.49 1008.11 1009.28 1010.16 1011.72 1012.47 1013.44 1014.06 1013.76 1013.86 1014.11 1014.68 1015.64 1015.73 1016.20 1016.62 1016.90 1016.60 1017.75 1018.64 1019.29 1019.31 1020.04 1019.26 1017.79 1016.54 1016.21 1016.06 1016.05 1016.48 1016.56 1017.14 1017.57 1018.61 1018.90 1019.14 1019.25 1019.20
1006.02 1006.54 1006.17 1006.54 1006.38 1006.67 1006.87 1007.41 1007.48 1008.77 1010.20 1011.71 1012.60 1012.91 1014.01 1013.90 1014.09 1014.48 1014.79 1015.78 1016.59 1016.88 1017.04 1017.31 1017.45 1019.55 1019.94 1020.34 1021.15 1020.55 1019.64 1018.41 1017.22 1016.69 1016.41 1016.54 1016.64 1016.50 1017.34 1017.86 1018.71 1018.89 1019.17 1019.21 1019.24
1006.07 1005.94 1006.14 1006.20 1006.21 1006.58 1006.73 1006.98 1007.80 1008.97 1010.24 1011.45 1012.23 1013.15 1014.25 1013.64 1014.14 1014.66 1015.32 1015.98 1016.50 1016.80 1017.59 1017.99 1018.83 1019.65 1020.28 1020.10 1019.26 1019.36 1019.70 1018.30 1017.34 1016.94 1016.94 1016.80 1016.67 1016.79 1017.27 1017.88 1018.49 1018.74 1019.11 1019.08 1018.96
1005.66 1005.79 1005.99 1005.76 1006.24 1006.05 1006.76 1006.09 1007.64 1008.07 1009.02 1009.09 1010.15 1011.69 1012.52 1013.44 1013.94 1014.97 1015.63 1016.24 1016.75 1016.48 1017.59 1018.49 1018.78 1018.00 1018.22 1018.72 1019.25 1019.73 1018.95 1018.19 1017.42 1016.78 1016.81 1016.92 1016.79 1016.76 1017.19 1018.01 1018.48 1018.74 1018.92 1018.81 1018.34
1005.41 1005.38 1005.25 1005.54 1005.60 1005.80 1006.03 1004.65 1006.12 1006.82 1008.30 1009.38 1010.68 1011.37 1012.44 1012.55 1014.05 1015.13 1015.43 1015.94 1016.28 1016.58 1017.65 1018.48 1016.70 1017.53 1018.67 1019.38 1019.33 1019.87 1019.17 1018.06 1017.70 1017.17 1017.15 1017.11 1016.88 1016.82 1017.18 1017.27 1017.56 1017.85 1018.37 1018.23 1018.24
1005.30 1005.28 1005.16 1005.24 1005.44 1005.68 1004.94 1005.41 1006.12 1006.69 1008.78 1010.53 1010.97 1011.33 1011.99 1012.62 1013.67 1014.63 1015.30 1015.68 1015.93 1016.62 1016.73 1016.79 1016.61 1017.65 1018.44 1019.44 1019.77 1019.92 1019.07 1018.24 1018.04 1017.70 1017.65 1017.90 1017.55 1016.91 1016.76 1016.91 1017.31 1017.57 1017.52 1017.80 1017.59
1005.10 1004.96 1005.12 1005.00 1005.62 1004.49 1004.51 1005.71 1006.43 1007.38 1009.36 1010.97 1010.95 1011.38 1011.75 1012.29 1013.78 1014.58 1014.98 1015.60 1016.39 1016.46 1017.12 1017.30 1016.98 1017.11 1018.38 1018.95 1019.28 1019.71 1018.70 1018.84 1018.47 1018.14 1017.96 1018.19 1017.38 1016.72 1016.50 1016.62 1017.05 1016.88 1017.14 1017.35 1017.18
1004.73 1004.69 1004.39 1004.42 1003.42 1003.43 1004.22 1005.40 1006.10 1008.38 1009.75 1010.67 1011.04 1010.96 1011.49 1011.97 1013.02 1014.57 1014.81 1015.25 1016.07 1016.47 1017.48 1017.56 1016.99 1017.31 1017.84 1017.42 1018.82 1019.11 1019.21 1019.79 1019.87 1019.37 1018.85 1018.73 1018.61 1016.35 1016.25 1016.15 1016.27 1016.35 1016.47 1016.58 1016.61
1004.25 1004.41 1003.75 1003.87 1003.80 1003.41 1004.05 1005.80 1006.25 1009.80 1009.30 1009.90 1009.90 1010.43 1011.75 1012.44 1013.15 1014.44 1014.84 1015.23 1016.24 1017.09 1017.67 1017.91 1017.64 1017.70 1017.14 1018.74 1018.74 1019.35 1020.10 1020.87 1020.83 1020.75 1019.52 1018.07 1018.11 1016.38 1015.87 1015.33 1015.42 1015.40 1015.66 1016.06 1016.60
1003.84 1003.64 1003.65 1003.35 1002.53 1002.86 1004.17 1005.18 1007.34 1007.80 1009.00 1009.70 1009.64 1010.21 1011.66 1012.42 1013.61 1014.12 1014.34 1015.06 1015.54 1017.15 1017.81 1018.04 1017.96 1017.86 1017.44 1018.61 1019.31 1019.84 1021.23 1021.81 1022.07 1021.83 1019.68 1018.56 1018.09 1015.10 1014.30 1014.30 1014.30 1014.46 1014.89 1015.53 1016.37
1003.81 1003.52 1003.18 1001.84 1001.42 1002.26 1004.09 1004.24 1005.77 1006.28 1008.05 1008.71 1009.19 1011.02 1011.49 1012.13 1013.58 1014.19 1014.62 1014.91 1015.37 1015.68 1016.69 1016.93 1018.37 1017.25 1016.52 1016.24 1016.63 1019.09 1019.64 1019.21 1019.49 1020.03 1019.18 1018.92 1016.95 1014.37 1013.97 1014.05 1014.30 1014.54 1015.00 1015.83 1016.73
1003.14 1002.90 1002.00 1001.34 1001.81 1001.76 1003.47 1003.63 1003.33 1004.64 1005.63 1007.22 1009.75 1010.31 1011.14 1011.70 1012.57 1013.88 1013.98 1013.94 1014.40 1014.31 1014.67 1015.65 1015.88 1015.76 1015.82 1015.71 1016.27 1018.11 1018.51 1017.25 1018.74 1019.84 1019.46 1017.91 1016.41 1014.70 1013.95 1014.24 1014.49 1014.75 1015.46 1015.70 1016.09
1002.93 1002.76 1001.82 1001.30 1001.88 1002.63 1003.10 1002.64 1002.96 1003.38 1004.64 1006.32 1007.66 1008.44 1009.35 1010.59 1011.84 1012.90 1013.38 1012.50 1012.84 1012.86 1013.42 1014.17 1015.30 1015.66 1015.34 1016.09 1016.29 1016.45 1017.26 1017.96 1018.07 1018.65 1018.65 1017.51 1016.36 1014.60 1014.12 1014.06 1014.43 1015.07 1015.01 1015.45 1016.21
1003.46 1002.41 1001.45 1001.04 1001.85 1001.89 1002.28 1002.47 1002.74 1003.28 1003.37 1004.90 1005.98 1007.01 1007.73 1008.92 1010.26 1011.25 1011.16 1011.04 1011.85 1012.34 1013.10 1013.08 1013.35 1015.79 1014.99 1014.30 1014.37 1016.69 1016.39 1016.53 1016.63 1016.96 1017.01 1016.97 1015.10 1013.18 1012.98 1012.64 1013.42 1014.03 1014.48 1015.10 1016.05
1002.91 1002.94 1001.82 1001.26 1001.45 1000.99 1001.23 1001.86 1001.89 1003.16 1003.24 1004.02 1004.95 1005.94 1006.83 1008.33 1009.88 1010.72 1010.43 1010.23 1010.33 1011.07 1012.22 1012.87 1013.00 1014.86 1014.66 1014.10 1014.35 1015.16 1015.54 1015.56 1015.56 1016.07 1016.39 1015.78 1013.58 1011.97 1012.05 1012.33 1012.78 1013.48 1014.72 1015.64 1016.27
1003.31 1002.82 1002.34 1002.15 1001.31 1001.11 1001.53 1001.82 1001.80 1002.81 1003.11 1003.63 1004.40 1005.01 1005.88 1007.46 1009.40 1009.61 1009.81 1009.67 1009.99 1010.33 1010.96 1012.04 1012.69 1014.11 1015.00 1014.72 1015.08 1015.31 1015.21 1014.62 1014.56 1014.76 1014.78 1014.99 1012.82 1012.07 1012.05 1012.26 1012.82 1013.52 1014.76 1015.68 1016.62
1004.12 1004.11 1003.31 1002.43 1002.30 1001.40 1001.20 1001.79 1002.12 1002.56 1003.01 1003.06 1003.57 1004.32 1005.94 1007.09 1007.69 1008.97 1009.38 1009.21 1009.67 1009.71 1010.43 1011.04 1011.78 1012.38 1012.16 1011.23 1013.06 1014.31 1014.08 1014.03 1013.70 1014.23 1013.78 1012.85 1012.40 1011.82 1011.54 1012.27 1012.81 1013.56 1014.43 1015.36 1016.42
1004.14 1004.26 1003.85 1002.74 1002.54 1001.71 1001.62 1001.98 1001.77 1002.32 1002.51 1002.81 1003.82 1003.83 1004.87 1006.37 1007.45 1007.68 1007.95 1008.82 1009.26 1009.37 1010.19 1010.07 1010.86 1012.12 1012.41 1012.38 1012.86 1013.23 1013.12 1013.12 1013.06 1012.74 1012.62 1011.99 1012.23 1011.56 1011.01 1011.34 1012.45 1013.60 1014.66 1015.52 1016.10
1004.32 1004.47 1004.23 1003.64 1002.41 1001.77 1001.64 1001.47 1001.44 1002.22 1002.60 1002.74 1002.93 1003.53 1003.82 1003.93 1004.54 1006.14 1006.89 1007.77 1008.26 1009.58 1009.60 1010.02 1011.17 1012.74 1013.23 1012.94 1012.75 1012.97 1012.88 1012.63 1012.49 1012.17 1011.61 1011.50 1011.15 1010.65 1010.94 1011.51 1012.34 1013.25 1014.18 1014.64 1015.25
1004.26 1004.59 1004.45 1003.59 1002.73 1001.91 1000.83 1000.68 1001.13 1001.78 1002.96 1002.76 1003.15 1003.79 1004.24 1004.16 1004.80 1005.73 1006.56 1007.53 1008.02 1008.85 1009.93 1010.90 1011.87 1013.25 1014.10 1013.69 1013.33 1013.30 1011.82 1011.86 1011.73 1011.27 1010.86 1010.89 1009.92 1010.40 1010.83 1011.36 1011.66 1012.66 1013.24 1013.49 1014.17
Thickness
5522 5536 5548 5553 5555 5560 5567 5576 5586 5589 5598 5603 5608 5613 5617 5626 5631 5636 5642 5655 5660 5665 5672 5669 5673 5678 5683 5683 5687 5684 5657 5654 5673 5673 5691 5700 5702 5705 5706 5697 5702 5702 5697 5705 5696
5518 5528 5536 5541 5547 5555 5561 5569 5579 5585 5591 5596 5602 5604 5609 5617 5626 5632 5648 5651 5658 5660 5664 5657 5662 5665 5670 5672 5677 5668 5655 5666 5687 5691 5693 5698 5702 5699 5697 5695 5696 5698 5698 5703 5698
5507 5519 5526 5531 5540 5548 5555 5565 5573 5579 5586 5590 5594 5597 5600 5609 5615 5635 5645 5647 5651 5656 5655 5657 5663 5661 5664 5664 5670 5668 5663 5681 5694 5700 5699 5696 5697 5702 5692 5691 5699 5698 5694 5698 5696
5496 5506 5516 5529 5534 5542 5551 5558 5567 5575 5580 5584 5586 5588 5590 5599 5603 5634 5642 5642 5646 5652 5654 5655 5655 5651 5652 5650 5660 5660 5675 5679 5695 5696 5694 5692 5699 5698 5700 5705 5715 5707 5710 5702 5697
5489 5496 5512 5521 5528 5537 5548 5555 5560 5569 5573 5578 5578 5581 5584 5589 5607 5626 5632 5636 5643 5646 5643 5644 5646 5649 5646 5647 5653 5660 5666 5677 5687 5689 5693 5694 5699 5696 5697 5707 5709 5708 5704 5703 5700
5478 5491 5500 5511 5527 5538 5545 5551 5556 5564 5569 5570 5571 5570 5579 5585 5606 5618 5621 5627 5635 5638 5638 5641 5640 5645 5637 5640 5638 5647 5650 5661 5678 5685 5688 5691 5691 5695 5697 5698 5699 5703 5701 5703 5702
5469 5478 5497 5512 5523 5537 5545 5550 5555 5563 5561 5563 5565 5568 5574 5584 5598 5605 5611 5616 5625 5630 5628 5628 5633 5640 5636 5632 5631 5636 5639 5655 5667 5674 5683 5688 5677 5685 5694 5695 5695 5694 5698 5700 5702
5465 5474 5491 5502 5524 5532 5543 5552 5558 5558 5559 5555 5557 5560 5563 5578 5587 5598 5603 5604 5613 5615 5620 5624 5634 5624 5620 5617 5622 5610 5626 5632 5658 5664 5675 5678 5663 5688 5685 5691 5687 5690 5691 5696 5700
5462 5467 5486 5498 5519 5526 5539 5548 5561 5555 5548 5541 5545 5555 5555 5570 5579 5588 5593 5593 5597 5603 5611 5615 5616 5598 5605 5601 5592 5601 5609 5620 5641 5653 5664 5667 5668 5684 5679 5686 5683 5689 5690 5694 5697
5456 5469 5480 5500 5511 5522 5536 5549 5551 5549 5537 5533 5538 5541 5547 5566 5574 5579 5582 5583 5589 5597 5596 5597 5595 5592 5588 5598 5605 5608 5605 5622 5633 5647 5653 5658 5667 5678 5676 5680 5683 5686 5685 5692 5697
5452 5463 5475 5493 5504 5522 5529 5545 5541 5542 5531 5552 5562 5555 5555 5558 5566 5568 5571 5575 5580 5590 5586 5585 5589 5600 5607 5613 5608 5602 5616 5623 5634 5647 5650 5649 5666 5673 5674 5673 5672 5679 5683 5691 5700
5448 5459 5475 5491 5505 5517 5529 5549 5549 5540 5537 5547 5545 5548 5548 5561 5556 5555 5564 5567 5574 5582 5578 5578 5604 5607 5600 5596 5599 5590 5601 5620 5625 5633 5643 5643 5657 5668 5666 5676 5680 5685 5683 5690 5694
5445 5456 5471 5489 5502 5507 5531 5538 5539 5535 5528 5529 5534 5540 5547 5551 5550 5553 5555 5560 5570 5571 5584 5588 5600 5597 5591 5585 5584 5587 5595 5613 5622 5624 5630 5630 5639 5656 5667 5671 5675 5674 5685 5687 5698
5442 5456 5467 5484 5490 5513 5525 5527 5532 5532 5518 5512 5524 5527 5536 5545 5540 5545 5549 5552 5551 5566 5570 5574 5586 5589 5583 5581 5589 5582 5607 5606 5605 5613 5607 5624 5618 5642 5657 5666 5666 5678 5681 5686 5697
5440 5452 5468 5479 5503 5516 5526 5524 5527 5521 5526 5507 5511 5526 5532 5539 5540 5534 5542 5545 5544 5553 5556 5561 5573 5580 5578 5594 5590 5588 5593 5584 5587 5592 5601 5605 5604 5639 5647 5663 5666 5674 5684 5689 5695
5439 5445 5467 5481 5493 5514 5519 5512 5520 5490 5507 5494 5512 5517 5525 5527 5529 5525 5531 5536 5539 5540 5541 5545 5562 5573 5589 5574 5587 5581 5568 5569 5573 5570 5577 5608 5605 5626 5635 5660 5678 5684 5690 5691 5691
5437 5453 5467 5481 5502 5510 5510 5508 5492 5511 5492 5495 5512 5528 5524 5524 5521 5526 5531 5533 5540 5531 5534 5534 5546 5558 5574 5566 5563 5556 5548 5542 5540 5540 5583 5585 5594 5655 5661 5660 5677 5691 5693 5689 5686
5431 5446 5462 5490 5505 5510 5502 5514 5500 5499 5507 5506 5520 5518 5518 5521 5514 5522 5523 5527 5536 5536 5531 5550 5537 5552 5575 5582 5581 5560 5557 5564 5562 5571 5594 5576 5592 5628 5652 5661 5664 5672 5677 5673 5672
5433 5446 5468 5489 5495 5507 5496 5502 5535 5530 5519 5516 5508 5512 5510 5522 5515 5512 5517 5535 5539 5542 5550 5539 5555 5561 5570 5579 5583 5562 5549 5592 5565 5498 5553 5577 5604 5626 5645 5649 5658 5664 5663 5675 5679
5428 5443 5470 5486 5490 5494 5496 5528 5525 5526 5526 5528 5518 5524 5520 5526 5515 5517 5520 5545 5545 5555 5555 5557 5540 5551 5560 5565 5566 5566 5577 5554 5554 5551 5549 5573 5587 5619 5638 5650 5655 5657 5663 5672 5670
5415 5449 5466 5480 5483 5491 5497 5518 5517 5523 5539 5534 5521 5528 5540 5538 5530 5531 5540 5548 5549 5549 5547 5554 5552 5529 5550 5563 5569 5549 5555 5561 5574 5563 5562 5552 5591 5623 5642 5661 5659 5666 5667 5669 5664
5415 5437 5455 5466 5476 5494 5505 5514 5523 5520 5532 5535 5534 5538 5543 5539 5519 5530 5532 5548 5556 5552 5543 5543 5543 5510 5543 5559 5563 5559 5561 5566 5564 5562 5557 5561 5589 5636 5635 5650 5659 5663 5652 5649 5651
5410 5423 5437 5448 5470 5477 5502 5510 5517 5516 5523 5530 5532 5544 5545 5538 5519 5530 5532 5546 5546 5548 5544 5539 5520 5504 5526 5537 5536 5538 5549 5563 5566 5560 5568 5565 5591 5622 5630 5640 5643 5648 5643 5641 5639
5400 5415 5423 5440 5450 5481 5493 5507 5505 5518 5523 5533 5532 5540 5534 5530 5532 5520 5528 5538 5539 5546 5545 5541 5529 5533 5554 5574 5558 5541 5548 5555 5568 5558 5568 5571 5598 5619 5631 5631 5636 5637 5639 5635 5632
5388 5399 5405 5439 5445 5470 5489 5495 5499 5504 5518 5524 5528 5539 5537 5527 5521 5527 5530 5530 5535 5540 5538 5548 5534 5538 5549 5555 5553 5546 5552 5551 5555 5575 5567 5589 5586 5611 5630 5632 5633 5627 5622 5618 5623
5384 5393 5401 5417 5441 5468 5481 5493 5509 5503 5509 5520 5530 5534 5540 5540 5555 5529 5535 5538 5544 5528 5538 5539 5514 5528 5511 5535 5539 5539 5546 5552 5556 5566 5571 5575 5581 5613 5616 5615 5615 5618 5618 5621 5622
5375 5382 5397 5420 5434 5458 5477 5500 5506 5508 5507 5522 5525 5532 5530 5540 5544 5540 5537 5530 5533 5533 5533 5526 5504 5493 5510 5511 5521 5508 5543 5547 5558 5563 5579 5560 5604 5603 5607 5609 5617 5612 5615 5622 5619